{"data":{"norad_id":46794,"intl_designator":"2020-074BH","name":"STARLINK-1942","alt_names":[],"object_type":"PAYLOAD","status":"ACTIVE","operator":null,"country":"US","launch_date":"2020-10-24","launch_site_code":"AFETR","launch_vehicle":null,"mission":null,"orbit_class":"UNKNOWN","rcs_meters":null,"size_class":null,"mass_kg":null,"dimensions":null,"purposes":["comms"],"wikipedia_slug":null,"has_3d_model":false,"image_url":null,"decayed_at":null,"tle_current":{"epoch":"2026-05-24T20:53:24.782208Z","epoch_age_seconds":83299,"freshness":"FRESH","line1":"1 46794U 20074BH  26144.87042572  .00099013  00000+0  11685-2 0  9999","line2":"2 46794  53.0404 286.3608 0005722 255.5605 104.4773 15.60556036308919","mean_motion":15.60556036,"eccentricity":0.0005722,"inclination_deg":53.0404,"raan_deg":286.3608,"arg_perigee_deg":255.5605,"mean_anomaly_deg":104.4773,"bstar":0.0011685,"rev_number":30891,"period_min":92.274802492257,"perigee_km":382.17938740116,"apogee_km":389.92032283816,"semimajor_km":6764.1868551197,"source":"CELESTRAK","updated_at":"2026-05-25T13:38:16.520493Z"}}}